Simultaneous Nadir Overpasses (SNOs) Predictions

Prediction of SNOs between AQUA and NOAA-19 Satellite Orbit:

Table of predicted SNOs for the next 14.0 days since TLE Epoch: 4/30/2022
Index Date (AQUA) Time (AQUA) Lat,Lon (AQUA) SZA (AQUA ) Date (NOAA-19) Time (NOAA-19) Lat,Lon (NOAA-19) SZA (NOAA-19 ) Distance(km) Time Diff (sec)
1 05/01/2022 00:24:56 -77.76, -23.41 116.79 05/01/2022 00:24:39 -77.75, -23.35 116.79 1.62 17
2 05/01/2022 01:14:23 77.77, 144.17 63.22 05/01/2022 01:15:34 77.78, 144.07 63.22 2.60 71
3 05/03/2022 05:58:23 77.74, 73.31 62.53 05/03/2022 05:57:34 77.73, 73.35 62.52 1.85 49
4 05/03/2022 06:47:50 -77.79,-119.26 117.43 05/03/2022 06:48:37 -77.76,-119.22 117.47 3.08 47
5 05/05/2022 11:31:48 -77.69, 170.19 118.19 05/05/2022 11:30:36 -77.72, 170.16 118.13 3.91 72
6 05/05/2022 12:21:16 77.75, -22.46 61.89 05/05/2022 12:21:32 77.74, -22.46 61.87 1.10 16
7 05/07/2022 17:54:41 -77.72, 74.32 118.78 05/07/2022 17:54:34 -77.72, 74.22 118.78 2.64 7
8 05/07/2022 18:44:16 78.10,-119.76 61.69 05/07/2022 18:45:21 78.10,-116.36 61.46 77.77 65
9 05/09/2022 23:28:06 77.70, 171.07 60.60 05/09/2022 23:27:29 77.73, 171.12 60.63 2.95 37
10 05/10/2022 00:17:33 -77.74, -21.46 119.37 05/10/2022 00:18:31 -77.74, -21.55 119.37 2.16 58
11 05/12/2022 05:01:30 -77.67, -92.15 120.02 05/12/2022 05:00:30 -77.69, -92.26 119.98 3.20 60



Historial Predications of SNOs between AQUA and NOAA-19
